,,Stat5,,Stat1,,Stat2,,Stat3,,Stat4,,Wind1,,Wind1,
time,status,PA1M_AVG,status,PR1M_SUM,status,RH1M_AVG,status,SR1M_AVG,status,TA1M_AVG,status,W1dAve1m,status,W1sAve1m,
2000-06-24, 00:00:00,VALID,917.808,VALID,0,VALID,96.2223,VALID,-0.0339617,VALID,18.9846,VALID,265,VALID,0,
2000-06-24, 00:01:00,VALID,917.795,VALID,0,VALID,96.1918,VALID,-0.0339617,VALID,18.9717,VALID,265,VALID,0,
2000-06-24, 00:02:00,VALID,917.773,VALID,0,VALID,96.1905,VALID,-0.0339617,VALID,18.9749,VALID,265,VALID,0,
2000-06-24, 00:03:00,VALID,917.775,VALID,0,VALID,96.16,VALID,-0.0169808,VALID,18.9945,VALID,265,VALID,0,
2000-06-24, 00:04:00,VALID,917.769,VALID,0,VALID,95.8408,VALID,-0.0169808,VALID,18.9814,VALID,265,VALID,0,
2000-06-24, 00:05:00,VALID,917.758,VALID,0,VALID,95.9731,VALID,-0.0509425,VALID,19.0171,VALID,265,VALID,0,
2000-06-24, 00:06:00,VALID,917.757,VALID,0,VALID,95.8955,VALID,0,VALID,19.0462,VALID,265,VALID,0,
2000-06-24, 00:07:00,VALID,917.741,VALID,0,VALID,95.6056,VALID,-0.0509425,VALID,19.0427,VALID,265,VALID,0,
2000-06-24, 00:08:00,VALID,917.737,VALID,0,VALID,95.3284,VALID,-0.0509425,VALID,19.0231,VALID,265,VALID,0,
2000-06-24, 00:09:00,VALID,917.722,VALID,0,VALID,95.219,VALID,-0.0509425,VALID,19.0169,VALID,265,VALID,0,
2000-06-24, 00:10:00,VALID,917.705,VALID,0,VALID,95.1669,VALID,-0.0339617,VALID,19.0268,VALID,265,VALID,0,
2000-06-24, 00:11:00,VALID,917.679,VALID,0,VALID,95.3589,VALID,-0.0339617,VALID,19.0402,VALID,265,VALID,0,
2000-06-24, 00:12:00,VALID,917.665,VALID,0,VALID,95.1542,VALID,-0.0679233,VALID,19.0367,VALID,265,VALID,0,
2000-06-24, 00:13:00,VALID,917.651,VALID,0,VALID,94.6964,VALID,-0.0339617,VALID,19.0007,VALID,129,VALID,0.239654,
2000-06-24, 00:14:00,VALID,917.635,VALID,0,VALID,94.7142,VALID,-0.101885,VALID,18.9424,VALID,111,VALID,0,
2000-06-24, 00:15:00,VALID,917.638,VALID,0,VALID,95.1796,VALID,-0.0849042,VALID,18.9331,VALID,111,VALID,0,
2000-06-24, 00:16:00,VALID,917.632,VALID,0,VALID,95.4848,VALID,-0.0849042,VALID,18.9267,VALID,111,VALID,0,
2000-06-24, 00:17:00,VALID,917.633,VALID,0,VALID,95.6043,VALID,-0.0679233,VALID,18.9239,VALID,111,VALID,0,
2000-06-24, 00:18:00,VALID,917.637,VALID,0,VALID,95.7607,VALID,-0.0509425,VALID,18.9105,VALID,111,VALID,0,
2000-06-24, 00:19:00,VALID,917.642,VALID,0,VALID,95.8447,VALID,-0.0509425,VALID,18.92,VALID,195,VALID,0,
2000-06-24, 00:20:00,VALID,917.644,VALID,0,VALID,95.8396,VALID,-0.0679233,VALID,18.9242,VALID,202,VALID,0,
2000-06-24, 00:21:00,VALID,917.644,VALID,0,VALID,95.4543,VALID,-0.0509425,VALID,18.8882,VALID,179,VALID,0,
2000-06-24, 00:22:00,VALID,917.641,VALID,0,VALID,95.5357,VALID,-0.0849042,VALID,18.8293,VALID,171,VALID,0,
2000-06-24, 00:23:00,VALID,917.63,VALID,0,VALID,96.099,VALID,-0.101885,VALID,18.8072,VALID,171,VALID,0,
2000-06-24, 00:24:00,VALID,917.643,VALID,0,VALID,96.2516,VALID,-0.0679233,VALID,18.7878,VALID,176,VALID,0,
2000-06-24, 00:25:00,VALID,917.649,VALID,0,VALID,96.3876,VALID,-0.0849042,VALID,18.7788,VALID,180,VALID,0,
2000-06-24, 00:26:00,VALID,917.64,VALID,0,VALID,96.5402,VALID,-0.0849042,VALID,18.7716,VALID,180,VALID,0,
2000-06-24, 00:27:00,VALID,917.624,VALID,0,VALID,96.6254,VALID,-0.101885,VALID,18.7915,VALID,180,VALID,0,
2000-06-24, 00:28:00,VALID,917.601,VALID,0,VALID,96.3673,VALID,-0.0679233,VALID,18.8106,VALID,180,VALID,0,
2000-06-24, 00:29:00,VALID,917.58,VALID,0,VALID,96.2388,VALID,-0.0849042,VALID,18.8141,VALID,180,VALID,0,
2000-06-24, 00:30:00,VALID,917.553,VALID,0,VALID,95.8764,VALID,-0.0679233,VALID,18.7945,VALID,180,VALID,0,
2000-06-24, 00:31:00,VALID,917.536,VALID,0,VALID,95.7963,VALID,-0.0679233,VALID,18.7913,VALID,180,VALID,0,
2000-06-24, 00:32:00,VALID,917.502,VALID,0,VALID,95.7633,VALID,-0.101885,VALID,18.7945,VALID,180,VALID,0,
2000-06-24, 00:33:00,VALID,917.5,VALID,0,VALID,95.7989,VALID,-0.0509425,VALID,18.7982,VALID,180,VALID,0,
2000-06-24, 00:34:00,VALID,917.494,VALID,0,VALID,95.8993,VALID,-0.0849042,VALID,18.7848,VALID,180,VALID,0,
2000-06-24, 00:35:00,VALID,917.505,VALID,0,VALID,95.823,VALID,-0.0849042,VALID,18.7818,VALID,180,VALID,0,
2000-06-24, 00:36:00,VALID,917.509,VALID,0,VALID,96.0621,VALID,-0.0679233,VALID,18.8143,VALID,180,VALID,0,
2000-06-24, 00:37:00,VALID,917.499,VALID,0,VALID,96.1982,VALID,-0.0679233,VALID,18.8432,VALID,180,VALID,0,
2000-06-24, 00:38:00,VALID,917.477,VALID,0,VALID,95.9044,VALID,-0.0849042,VALID,18.8529,VALID,180,VALID,0,
2000-06-24, 00:39:00,VALID,917.456,VALID,0,VALID,95.5204,VALID,-0.101885,VALID,18.8268,VALID,180,VALID,0,
2000-06-24, 00:40:00,VALID,917.431,VALID,0,VALID,95.5496,VALID,-0.0849042,VALID,18.824,VALID,180,VALID,0,
2000-06-24, 00:41:00,VALID,917.414,VALID,0,VALID,95.5395,VALID,-0.0679233,VALID,18.8206,VALID,180,VALID,0,
2000-06-24, 00:42:00,VALID,917.397,VALID,0,VALID,95.4822,VALID,-0.0849042,VALID,18.8042,VALID,180,VALID,0,
2000-06-24, 00:43:00,VALID,917.387,VALID,0,VALID,95.5636,VALID,-0.0849042,VALID,18.8206,VALID,177,VALID,0,
2000-06-24, 00:44:00,VALID,917.396,VALID,0,VALID,95.5242,VALID,-0.0849042,VALID,18.8141,VALID,177,VALID,0,
2000-06-24, 00:45:00,VALID,917.376,VALID,0,VALID,95.453,VALID,-0.101885,VALID,18.7943,VALID,147,VALID,0,
2000-06-24, 00:46:00,VALID,917.381,VALID,0,VALID,95.6386,VALID,-0.101885,VALID,18.8017,VALID,98,VALID,0.278863,
2000-06-24, 00:47:00,VALID,917.391,VALID,0,VALID,95.7696,VALID,-0.0849042,VALID,18.7853,VALID,86,VALID,0.502956,
2000-06-24, 00:48:00,VALID,917.391,VALID,0,VALID,96.1664,VALID,-0.0849042,VALID,18.8533,VALID,91,VALID,0.123698,
2000-06-24, 00:49:00,VALID,917.388,VALID,0,VALID,95.8561,VALID,-0.118866,VALID,18.9055,VALID,94,VALID,0,
2000-06-24, 00:50:00,VALID,917.391,VALID,0,VALID,95.865,VALID,-0.118866,VALID,18.9468,VALID,73,VALID,0,
2000-06-24, 00:51:00,VALID,917.389,VALID,0,VALID,95.7963,VALID,-0.101885,VALID,19.0081,VALID,93,VALID,0,
2000-06-24, 00:52:00,VALID,917.399,VALID,0,VALID,95.5535,VALID,-0.0849042,VALID,19.037,VALID,93,VALID,0.0521484,
2000-06-24, 00:53:00,VALID,917.385,VALID,0,VALID,95.3538,VALID,-0.0509425,VALID,19.0857,VALID,99,VALID,0.259663,
2000-06-24, 00:54:00,VALID,917.375,VALID,0,VALID,94.9088,VALID,-0.0849042,VALID,19.1247,VALID,112,VALID,0.0506757,
2000-06-24, 00:55:00,VALID,917.379,VALID,0,VALID,94.6544,VALID,-0.0679233,VALID,19.1309,VALID,119,VALID,0.719336,
2000-06-24, 00:56:00,VALID,917.372,VALID,0,VALID,94.4192,VALID,-0.0339617,VALID,19.1503,VALID,115,VALID,0.676192,
2000-06-24, 00:57:00,VALID,917.358,VALID,0,VALID,94.2907,VALID,0.0169808,VALID,19.1821,VALID,117,VALID,0.240402,
2000-06-24, 00:58:00,VALID,917.335,VALID,0,VALID,94.0415,VALID,-0.0169808,VALID,19.195,VALID,118,VALID,0.0394631,
2000-06-24, 00:59:00,VALID,917.333,VALID,0,VALID,93.9194,VALID,0,VALID,19.205,VALID,118,VALID,0.015625,
2000-06-24, 01:00:00,VALID,917.335,VALID,0,VALID,93.6906,VALID,-0.0169808,VALID,19.1985,VALID,141,VALID,0.0743243,
2000-06-24, 01:01:00,VALID,917.331,VALID,0,VALID,93.7109,VALID,-0.0169808,VALID,19.1657,VALID,167,VALID,0.10597,
2000-06-24, 01:02:00,VALID,917.337,VALID,0,VALID,93.8126,VALID,0,VALID,19.1334,VALID,192,VALID,0.398232,
2000-06-24, 01:03:00,VALID,917.348,VALID,0,VALID,94.2094,VALID,0,VALID,19.075,VALID,220,VALID,0.655839,
2000-06-24, 01:04:00,VALID,917.354,VALID,0,VALID,94.5552,VALID,0,VALID,19.0107,VALID,213,VALID,0.756334,
2000-06-24, 01:05:00,VALID,917.369,VALID,0,VALID,94.7867,VALID,0,VALID,18.9463,VALID,213,VALID,0.780599,
2000-06-24, 01:06:00,VALID,917.368,VALID,0,VALID,95.0664,VALID,0,VALID,18.8849,VALID,214,VALID,1.01436,
2000-06-24, 01:07:00,VALID,917.365,VALID,0,VALID,95.495,VALID,0,VALID,18.8236,VALID,213,VALID,0.920025,
2000-06-24, 01:08:00,VALID,917.359,VALID,0,VALID,95.9744,VALID,0,VALID,18.7719,VALID,212,VALID,0.736979,
2000-06-24, 01:09:00,VALID,917.344,VALID,0,VALID,96.2109,VALID,0,VALID,18.7527,VALID,200,VALID,0.885617,
2000-06-24, 01:10:00,VALID,917.345,VALID,0,VALID,96.4016,VALID,-0.0679233,VALID,18.7211,VALID,205,VALID,1.13577,
2000-06-24, 01:11:00,VALID,917.342,VALID,0,VALID,96.7907,VALID,-0.101885,VALID,18.696,VALID,207,VALID,1.27817,
2000-06-24, 01:12:00,VALID,917.32,VALID,0,VALID,96.9891,VALID,-0.101885,VALID,18.6923,VALID,203,VALID,1.05789,
2000-06-24, 01:13:00,VALID,917.317,VALID,0,VALID,97.1722,VALID,-0.101885,VALID,18.696,VALID,198,VALID,1.05489,
2000-06-24, 01:14:00,VALID,917.328,VALID,0,VALID,97.1951,VALID,-0.101885,VALID,18.6926,VALID,200,VALID,0.789063,
2000-06-24, 01:15:00,VALID,917.306,VALID,0,VALID,97.1442,VALID,-0.118866,VALID,18.6764,VALID,191,VALID,0.887747,
2000-06-24, 01:16:00,VALID,917.287,VALID,0,VALID,97.232,VALID,-0.101885,VALID,18.6699,VALID,197,VALID,1.01795,
2000-06-24, 01:17:00,VALID,917.277,VALID,0,VALID,97.3388,VALID,-0.101885,VALID,18.6603,VALID,191,VALID,0.855686,
2000-06-24, 01:18:00,VALID,917.268,VALID,0,VALID,97.3718,VALID,-0.101885,VALID,18.657,VALID,181,VALID,0.827908,
2000-06-24, 01:19:00,VALID,917.268,VALID,0,VALID,97.4062,VALID,-0.101885,VALID,18.6677,VALID,177,VALID,0.807155,
2000-06-24, 01:20:00,VALID,917.263,VALID,0,VALID,97.5003,VALID,-0.101885,VALID,18.6637,VALID,182,VALID,0.74116,
2000-06-24, 01:21:00,VALID,917.264,VALID,0,VALID,97.4977,VALID,-0.118866,VALID,18.6762,VALID,188,VALID,0.839627,
2000-06-24, 01:22:00,VALID,917.248,VALID,0,VALID,97.4125,VALID,-0.118866,VALID,18.6796,VALID,178,VALID,0.479688,
2000-06-24, 01:23:00,VALID,917.233,VALID,0,VALID,97.1569,VALID,-0.101885,VALID,18.6568,VALID,172,VALID,0.0298109,
2000-06-24, 01:24:00,VALID,917.219,VALID,0,VALID,97.0094,VALID,-0.101885,VALID,18.6409,VALID,171,VALID,0,
2000-06-24, 01:25:00,VALID,917.194,VALID,0,VALID,97.1557,VALID,-0.0509425,VALID,18.6439,VALID,171,VALID,0.443164,
2000-06-24, 01:26:00,VALID,917.176,VALID,0,VALID,97.279,VALID,0,VALID,18.6397,VALID,172,VALID,0.497738,
2000-06-24, 01:27:00,VALID,917.177,VALID,0,VALID,97.2841,VALID,0,VALID,18.6362,VALID,187,VALID,0.584293,
2000-06-24, 01:28:00,VALID,917.166,VALID,0,VALID,97.2307,VALID,0,VALID,18.6298,VALID,185,VALID,0.698518,
2000-06-24, 01:29:00,VALID,917.176,VALID,0,VALID,97.3388,VALID,0,VALID,18.6457,VALID,184,VALID,0.808494,
2000-06-24, 01:30:00,VALID,917.179,VALID,0,VALID,97.2803,VALID,0,VALID,18.6588,VALID,187,VALID,0.885216,
2000-06-24, 01:31:00,VALID,917.187,VALID,0,VALID,97.1455,VALID,0.0169808,VALID,18.6494,VALID,197,VALID,0.908088,
2000-06-24, 01:32:00,VALID,917.185,VALID,0,VALID,97.0222,VALID,-0.0169808,VALID,18.6335,VALID,193,VALID,1.03203,
2000-06-24, 01:33:00,VALID,917.189,VALID,0,VALID,97.1684,VALID,0,VALID,18.6263,VALID,190,VALID,1.2296,
2000-06-24, 01:34:00,VALID,917.188,VALID,0,VALID,97.2154,VALID,0,VALID,18.6623,VALID,189,VALID,1.22049,
2000-06-24, 01:35:00,VALID,917.177,VALID,0,VALID,97.087,VALID,0.0339617,VALID,18.6879,VALID,189,VALID,1.18032,
2000-06-24, 01:36:00,VALID,917.181,VALID,0,VALID,96.9713,VALID,0,VALID,18.7108,VALID,185,VALID,1.03475,
2000-06-24, 01:37:00,VALID,917.172,VALID,0,VALID,96.9052,VALID,0,VALID,18.7167,VALID,197,VALID,0.923611,
2000-06-24, 01:38:00,VALID,917.177,VALID,0,VALID,96.8111,VALID,0,VALID,18.7331,VALID,196,VALID,1.38492,
2000-06-24, 01:39:00,VALID,917.181,VALID,0,VALID,96.6648,VALID,0,VALID,18.7398,VALID,199,VALID,1.10373,
2000-06-24, 01:40:00,VALID,917.182,VALID,0,VALID,96.703,VALID,0,VALID,18.7497,VALID,196,VALID,1.1984,
2000-06-24, 01:41:00,VALID,917.17,VALID,0,VALID,96.6941,VALID,-0.0169808,VALID,18.7428,VALID,204,VALID,0.966005,
2000-06-24, 01:42:00,VALID,917.16,VALID,0,VALID,96.6903,VALID,-0.0339617,VALID,18.7497,VALID,203,VALID,1.16902,
2000-06-24, 01:43:00,VALID,917.131,VALID,0,VALID,96.7526,VALID,0,VALID,18.7493,VALID,196,VALID,1.55762,
2000-06-24, 01:44:00,VALID,917.111,VALID,0,VALID,96.7335,VALID,0,VALID,18.7396,VALID,187,VALID,1.31456,
2000-06-24, 01:45:00,VALID,917.094,VALID,0,VALID,96.7996,VALID,0,VALID,18.7301,VALID,187,VALID,1.21959,
2000-06-24, 01:46:00,VALID,917.068,VALID,0,VALID,96.8683,VALID,0,VALID,18.7174,VALID,181,VALID,1.10293,
2000-06-24, 01:47:00,VALID,917.056,VALID,0,VALID,96.8657,VALID,0,VALID,18.7177,VALID,195,VALID,1.16879,
2000-06-24, 01:48:00,VALID,917.036,VALID,0,VALID,96.7602,VALID,0,VALID,18.6941,VALID,191,VALID,0.985268,
2000-06-24, 01:49:00,VALID,917.027,VALID,0,VALID,96.6547,VALID,0.0169808,VALID,18.6819,VALID,198,VALID,1.03285,
2000-06-24, 01:50:00,VALID,917.009,VALID,0,VALID,96.689,VALID,0.0169808,VALID,18.6787,VALID,205,VALID,1.25825,
2000-06-24, 01:51:00,VALID,917.003,VALID,0,VALID,96.7004,VALID,0,VALID,18.6785,VALID,219,VALID,1.1098,
2000-06-24, 01:52:00,VALID,917.005,VALID,0,VALID,96.7335,VALID,0,VALID,18.6856,VALID,215,VALID,1.44411,
2000-06-24, 01:53:00,VALID,917.013,VALID,0,VALID,96.6547,VALID,-0.0169808,VALID,18.6787,VALID,219,VALID,1.11719,
2000-06-24, 01:54:00,VALID,917.021,VALID,0,VALID,96.5453,VALID,0,VALID,18.6944,VALID,220,VALID,1.22965,
2000-06-24, 01:55:00,VALID,917.02,VALID,0,VALID,96.5924,VALID,-0.0169808,VALID,18.7115,VALID,216,VALID,1.3277,
2000-06-24, 01:56:00,VALID,917.012,VALID,0,VALID,96.4805,VALID,-0.0509425,VALID,18.7269,VALID,215,VALID,1.19575,
2000-06-24, 01:57:00,VALID,916.995,VALID,0,VALID,96.305,VALID,-0.0509425,VALID,18.7502,VALID,213,VALID,1.15541,
2000-06-24, 01:58:00,VALID,916.974,VALID,0,VALID,96.3419,VALID,-0.0169808,VALID,18.7629,VALID,208,VALID,0.905222,
2000-06-24, 01:59:00,VALID,916.944,VALID,0,VALID,96.263,VALID,-0.0169808,VALID,18.782,VALID,204,VALID,0.551683,
2000-06-24, 02:00:00,VALID,916.916,VALID,0,VALID,96.0061,VALID,-0.0169808,VALID,18.7724,VALID,181,VALID,0.865785,
2000-06-24, 02:01:00,VALID,916.898,VALID,0,VALID,96.1397,VALID,0,VALID,18.7758,VALID,179,VALID,0.917863,
2000-06-24, 02:02:00,VALID,916.882,VALID,0,VALID,96.277,VALID,-0.0169808,VALID,18.7786,VALID,184,VALID,0.898849,
2000-06-24, 02:03:00,VALID,916.867,VALID,0,VALID,96.1676,VALID,-0.0169808,VALID,18.7687,VALID,181,VALID,0.705529,
2000-06-24, 02:04:00,VALID,916.855,VALID,0,VALID,96.1422,VALID,-0.0169808,VALID,18.7689,VALID,189,VALID,0.698918,
2000-06-24, 02:05:00,VALID,916.862,VALID,0,VALID,96.2579,VALID,-0.0339617,VALID,18.7724,VALID,197,VALID,0.909007,
2000-06-24, 02:06:00,VALID,916.887,VALID,0,VALID,96.1549,VALID,-0.0169808,VALID,18.7816,VALID,195,VALID,0.988487,
2000-06-24, 02:07:00,VALID,916.866,VALID,0,VALID,95.9985,VALID,-0.0509425,VALID,18.8273,VALID,196,VALID,1.05722,
2000-06-24, 02:08:00,VALID,916.865,VALID,0,VALID,95.6107,VALID,0,VALID,18.8824,VALID,189,VALID,1.00716,
2000-06-24, 02:09:00,VALID,916.861,VALID,0,VALID,94.9634,VALID,-0.0169808,VALID,18.8921,VALID,188,VALID,0.710503,
2000-06-24, 02:10:00,VALID,916.84,VALID,0,VALID,94.8693,VALID,-0.0339617,VALID,18.8506,VALID,178,VALID,0.635485,
2000-06-24, 02:11:00,VALID,916.827,VALID,0,VALID,95.219,VALID,-0.0339617,VALID,18.7957,VALID,195,VALID,0.797286,
2000-06-24, 02:12:00,VALID,916.821,VALID,0,VALID,95.659,VALID,-0.0679233,VALID,18.7408,VALID,207,VALID,0.757161,
2000-06-24, 02:13:00,VALID,916.815,VALID,0,VALID,96.0036,VALID,-0.0509425,VALID,18.7276,VALID,211,VALID,0.654688,
2000-06-24, 02:14:00,VALID,916.797,VALID,0,VALID,95.9388,VALID,-0.0339617,VALID,18.7306,VALID,216,VALID,0.492599,
2000-06-24, 02:15:00,VALID,916.783,VALID,0,VALID,95.8078,VALID,0,VALID,18.7341,VALID,222,VALID,0.394631,
2000-06-24, 02:16:00,VALID,916.764,VALID,0,VALID,95.8116,VALID,-0.0339617,VALID,18.7112,VALID,212,VALID,0,
2000-06-24, 02:17:00,VALID,916.752,VALID,0,VALID,95.9591,VALID,-0.0339617,VALID,18.6881,VALID,213,VALID,0,
2000-06-24, 02:18:00,VALID,916.746,VALID,0,VALID,96.0163,VALID,-0.0339617,VALID,18.6665,VALID,219,VALID,0,
2000-06-24, 02:19:00,VALID,916.732,VALID,0,VALID,96.1269,VALID,-0.0339617,VALID,18.6173,VALID,231,VALID,0,
2000-06-24, 02:20:00,VALID,916.728,VALID,0,VALID,96.2299,VALID,-0.0169808,VALID,18.5783,VALID,222,VALID,0,
2000-06-24, 02:21:00,VALID,916.716,VALID,0,VALID,96.2477,VALID,-0.0339617,VALID,18.5467,VALID,207,VALID,0,
2000-06-24, 02:22:00,VALID,916.713,VALID,0,VALID,96.2999,VALID,0,VALID,18.5306,VALID,197,VALID,0,
2000-06-24, 02:23:00,VALID,916.697,VALID,0,VALID,96.2121,VALID,0,VALID,18.4521,VALID,173,VALID,0,
2000-06-24, 02:24:00,VALID,916.689,VALID,0,VALID,96.3202,VALID,-0.0169808,VALID,18.3908,VALID,178,VALID,0,
2000-06-24, 02:25:00,VALID,916.662,VALID,0,VALID,96.6394,VALID,-0.0339617,VALID,18.3689,VALID,194,VALID,0,
2000-06-24, 02:26:00,VALID,916.648,VALID,0,VALID,96.7119,VALID,-0.0509425,VALID,18.3172,VALID,206,VALID,0,
2000-06-24, 02:27:00,VALID,916.63,VALID,0,VALID,97.0374,VALID,-0.0169808,VALID,18.2946,VALID,223,VALID,0.465255,
2000-06-24, 02:28:00,VALID,916.603,VALID,0,VALID,97.4176,VALID,-0.0509425,VALID,18.314,VALID,230,VALID,0.87066,
2000-06-24, 02:29:00,VALID,916.582,VALID,0,VALID,97.677,VALID,-0.0339617,VALID,18.3495,VALID,225,VALID,0.872466,
2000-06-24, 02:30:00,VALID,916.569,VALID,0,VALID,97.7165,VALID,-0.0509425,VALID,18.3853,VALID,226,VALID,1.05881,
2000-06-24, 02:31:00,VALID,916.539,VALID,0,VALID,97.6821,VALID,-0.0169808,VALID,18.4076,VALID,226,VALID,1.04441,
2000-06-24, 02:32:00,VALID,916.523,VALID,0,VALID,97.5702,VALID,-0.0509425,VALID,18.4076,VALID,227,VALID,0.881123,
2000-06-24, 02:33:00,VALID,916.499,VALID,0,VALID,97.5244,VALID,-0.0509425,VALID,18.4139,VALID,227,VALID,0.975038,
2000-06-24, 02:34:00,VALID,916.49,VALID,0,VALID,97.5817,VALID,-0.0339617,VALID,18.4439,VALID,221,VALID,0.905859,
2000-06-24, 02:35:00,VALID,916.474,VALID,0,VALID,97.5066,VALID,-0.0509425,VALID,18.4305,VALID,210,VALID,0.579975,
2000-06-24, 02:36:00,VALID,916.467,VALID,0,VALID,97.4443,VALID,-0.0509425,VALID,18.4339,VALID,197,VALID,0.77935,
2000-06-24, 02:37:00,VALID,916.461,VALID,0,VALID,97.3591,VALID,-0.0509425,VALID,18.421,VALID,197,VALID,0.778516,
2000-06-24, 02:38:00,VALID,916.466,VALID,0,VALID,97.2841,VALID,-0.0509425,VALID,18.4275,VALID,213,VALID,0.532895,
2000-06-24, 02:39:00,VALID,916.46,VALID,0,VALID,97.2803,VALID,-0.0849042,VALID,18.4307,VALID,201,VALID,0.830804,
2000-06-24, 02:40:00,VALID,916.46,VALID,0,VALID,97.1124,VALID,0,VALID,18.43,VALID,201,VALID,0.854367,
2000-06-24, 02:41:00,VALID,916.489,VALID,0,VALID,97.0463,VALID,0.0849042,VALID,18.4196,VALID,210,VALID,0.734592,
2000-06-24, 02:42:00,VALID,916.492,VALID,0,VALID,97.0794,VALID,0.0849042,VALID,18.4129,VALID,204,VALID,0.704814,
2000-06-24, 02:43:00,VALID,916.506,VALID,0,VALID,97.0247,VALID,0.0509425,VALID,18.4228,VALID,210,VALID,0.672877,
2000-06-24, 02:44:00,VALID,916.511,VALID,0,VALID,97.073,VALID,0.0849042,VALID,18.4452,VALID,216,VALID,1.15892,
2000-06-24, 02:45:00,VALID,916.521,VALID,0,VALID,96.8759,VALID,0.0509425,VALID,18.4614,VALID,207,VALID,0.769326,
2000-06-24, 02:46:00,VALID,916.526,VALID,0,VALID,96.6992,VALID,0.0339617,VALID,18.4678,VALID,194,VALID,0.988176,
2000-06-24, 02:47:00,VALID,916.518,VALID,0,VALID,96.6547,VALID,0.0679233,VALID,18.4711,VALID,208,VALID,0.788845,
2000-06-24, 02:48:00,VALID,916.504,VALID,0,VALID,96.4868,VALID,0.0679233,VALID,18.4678,VALID,189,VALID,0.990498,
2000-06-24, 02:49:00,VALID,916.5,VALID,0,VALID,96.3558,VALID,0.0679233,VALID,18.4713,VALID,185,VALID,1.18462,
2000-06-24, 02:50:00,VALID,916.492,VALID,0,VALID,96.2236,VALID,-0.0169808,VALID,18.4755,VALID,189,VALID,1.26843,
2000-06-24, 02:51:00,VALID,916.503,VALID,0,VALID,96.1918,VALID,-0.0339617,VALID,18.4918,VALID,194,VALID,1.26382,
2000-06-24, 02:52:00,VALID,916.503,VALID,0,VALID,96.2948,VALID,-0.0339617,VALID,18.4789,VALID,188,VALID,1.39485,
2000-06-24, 02:53:00,VALID,916.5,VALID,0,VALID,96.1333,VALID,-0.0849042,VALID,18.4632,VALID,191,VALID,1.21608,
2000-06-24, 02:54:00,VALID,916.516,VALID,0,VALID,96.2121,VALID,-0.0509425,VALID,18.4242,VALID,194,VALID,0.990785,
2000-06-24, 02:55:00,VALID,916.542,VALID,0,VALID,96.3342,VALID,-0.0339617,VALID,18.3786,VALID,196,VALID,0.825721,
2000-06-24, 02:56:00,VALID,916.538,VALID,0,VALID,96.4525,VALID,-0.0339617,VALID,18.3271,VALID,189,VALID,0.941176,
2000-06-24, 02:57:00,VALID,916.536,VALID,0,VALID,96.7602,VALID,-0.0169808,VALID,18.2754,VALID,193,VALID,1.01686,
2000-06-24, 02:58:00,VALID,916.524,VALID,0,VALID,97.0768,VALID,-0.0679233,VALID,18.2436,VALID,219,VALID,0.57348,
2000-06-24, 02:59:00,VALID,916.498,VALID,0,VALID,97.2765,VALID,-0.0679233,VALID,18.2335,VALID,198,VALID,0.858507,
2000-06-24, 03:00:00,VALID,916.472,VALID,0,VALID,97.555,VALID,-0.0169808,VALID,18.2203,VALID,215,VALID,0.648003,
2000-06-24, 03:01:00,VALID,916.444,VALID,0,VALID,97.6033,VALID,-0.0679233,VALID,18.2242,VALID,210,VALID,0.544408,
2000-06-24, 03:02:00,VALID,916.398,VALID,0,VALID,97.5804,VALID,-0.0509425,VALID,18.1945,VALID,200,VALID,0.705592,
2000-06-24, 03:03:00,VALID,916.358,VALID,0,VALID,97.6224,VALID,-0.0339617,VALID,18.1853,VALID,195,VALID,0.620009,
2000-06-24, 03:04:00,VALID,916.315,VALID,0,VALID,97.6796,VALID,-0.0339617,VALID,18.1723,VALID,185,VALID,0.865848,
2000-06-24, 03:05:00,VALID,916.281,VALID,0,VALID,97.7699,VALID,-0.0679233,VALID,18.1659,VALID,184,VALID,1.10773,
2000-06-24, 03:06:00,VALID,916.254,VALID,0,VALID,97.808,VALID,-0.0339617,VALID,18.2019,VALID,187,VALID,1.09776,
2000-06-24, 03:07:00,VALID,916.231,VALID,0,VALID,97.7635,VALID,-0.0509425,VALID,18.2113,VALID,183,VALID,1.02324,
2000-06-24, 03:08:00,VALID,916.23,VALID,0,VALID,97.7432,VALID,-0.0509425,VALID,18.2367,VALID,186,VALID,0.956003,
2000-06-24, 03:09:00,VALID,916.238,VALID,0,VALID,97.6452,VALID,0,VALID,18.2692,VALID,189,VALID,1.07196,
2000-06-24, 03:10:00,VALID,916.257,VALID,0,VALID,97.5041,VALID,-0.0509425,VALID,18.2948,VALID,189,VALID,1.05228,
2000-06-24, 03:11:00,VALID,916.291,VALID,0,VALID,97.2282,VALID,-0.0509425,VALID,18.3211,VALID,180,VALID,1.0024,
2000-06-24, 03:12:00,VALID,916.311,VALID,0,VALID,97.0107,VALID,-0.0849042,VALID,18.3301,VALID,190,VALID,1.28586,
2000-06-24, 03:13:00,VALID,916.332,VALID,0,VALID,96.7449,VALID,-0.0679233,VALID,18.3663,VALID,187,VALID,1.45864,
2000-06-24, 03:14:00,VALID,916.347,VALID,0,VALID,96.3686,VALID,-0.0339617,VALID,18.3887,VALID,185,VALID,1.37188,
2000-06-24, 03:15:00,VALID,916.367,VALID,0,VALID,96.1905,VALID,-0.0509425,VALID,18.4046,VALID,179,VALID,1.60243,
2000-06-24, 03:16:00,VALID,916.376,VALID,0,VALID,96.0964,VALID,-0.0679233,VALID,18.4245,VALID,182,VALID,1.55794,
2000-06-24, 03:17:00,VALID,916.372,VALID,0,VALID,95.9388,VALID,-0.0849042,VALID,18.4049,VALID,181,VALID,1.50042,
2000-06-24, 03:18:00,VALID,916.389,VALID,0,VALID,95.6743,VALID,-0.0679233,VALID,18.3885,VALID,193,VALID,0.840049,
2000-06-24, 03:19:00,VALID,916.396,VALID,0,VALID,95.907,VALID,-0.0509425,VALID,18.3696,VALID,200,VALID,1.03733,
2000-06-24, 03:20:00,VALID,916.405,VALID,0,VALID,96.0761,VALID,-0.0849042,VALID,18.3373,VALID,209,VALID,0.938556,
2000-06-24, 03:21:00,VALID,916.404,VALID,0,VALID,96.1333,VALID,-0.0679233,VALID,18.3151,VALID,202,VALID,0.985243,
2000-06-24, 03:22:00,VALID,916.399,VALID,0,VALID,96.1435,VALID,-0.0169808,VALID,18.2824,VALID,204,VALID,0.933183,
2000-06-24, 03:23:00,VALID,916.388,VALID,0,VALID,96.0011,VALID,-0.0339617,VALID,18.2628,VALID,171,VALID,1.04772,
2000-06-24, 03:24:00,VALID,916.379,VALID,0,VALID,95.9273,VALID,-0.0169808,VALID,18.2468,VALID,176,VALID,1.05335,
2000-06-24, 03:25:00,VALID,916.363,VALID,0,VALID,95.8726,VALID,-0.0169808,VALID,18.2406,VALID,176,VALID,0.80625,
2000-06-24, 03:26:00,VALID,916.334,VALID,0,VALID,95.8599,VALID,-0.0849042,VALID,18.2344,VALID,167,VALID,0.709087,
2000-06-24, 03:27:00,VALID,916.299,VALID,0,VALID,95.7925,VALID,-0.0509425,VALID,18.182,VALID,156,VALID,0.79962,
2000-06-24, 03:28:00,VALID,916.279,VALID,0,VALID,95.8523,VALID,-0.0509425,VALID,18.1594,VALID,148,VALID,0.549414,
2000-06-24, 03:29:00,VALID,916.248,VALID,0,VALID,95.6666,VALID,-0.0509425,VALID,18.1045,VALID,131,VALID,0.637541,
2000-06-24, 03:30:00,VALID,916.22,VALID,0,VALID,95.7963,VALID,-0.0679233,VALID,18.0335,VALID,126,VALID,0.645089,
2000-06-24, 03:31:00,VALID,916.218,VALID,0,VALID,95.9209,VALID,-0.0679233,VALID,17.976,VALID,125,VALID,0.446114,
2000-06-24, 03:32:00,VALID,916.22,VALID,0,VALID,96.422,VALID,-0.0509425,VALID,17.9336,VALID,148,VALID,0.575304,
2000-06-24, 03:33:00,VALID,916.218,VALID,0,VALID,96.8772,VALID,-0.0849042,VALID,17.9373,VALID,169,VALID,0.647804,
2000-06-24, 03:34:00,VALID,916.241,VALID,0,VALID,96.9955,VALID,-0.0679233,VALID,17.9045,VALID,175,VALID,0.654848,